Weather History for Louisville Bowman, KY

Change the Weather History Date:

Tuesday, June 10, 2014

  Actual Average Record
Temperature  
Mean Temperature 75 °F 74 °F  
Max Temperature 82 °F 84 °F 93 °F (1958)
Min Temperature 68 °F 64 °F 49 °F (1988)
Degree Days  
Heating Degree Days 0 0  
Month to date heating degree days 0 2  
Since 1 June heating degree days 0 2  
Since 1 July heating degree days 4706 4267  
Cooling Degree Days 10 9  
Month to date cooling degree days 109 80  
Year to date cooling degree days 364 227  
Since 1 June cooling degree days 109 80  
Growing Degree Days 24 (Base 50)    
Moisture  
Dew Point 65 °F    
Average Humidity 71    
Maximum Humidity 84    
Minimum Humidity 58    
Precipitation  
Precipitation 0.21 in 0.16 in 1.01 in (1981)
Month to date precipitation 0.31 1.69  
Year to date precipitation 19.85 21.61  
Sea Level Pressure  
Sea Level Pressure 29.83 in    
Wind  
Wind Speed 6 mph (SSE)    
Max Wind Speed 10 mph    
Max Gust Speed 15 mph    
Visibility 8 miles    
Events Rain , Thunderstorm    
T = Trace of Precipitation, MM = Missing Value Source: NWS Daily Summary

Daily Weather History Graph

Daily Weather History Graph

Search for Another Location

Airport:

Trip Planner

Search our weather history database for the weather conditions in past years. The results will help you decide how hot, cold, wet, or windy it might be!

Date:

Astronomy

Jun. 10, 2014 Rise Set
Actual Time 6:18 AM EDT 9:05 PM EDT
Civil Twilight 5:47 AM EDT 9:36 PM EDT
Nautical Twilight 5:08 AM EDT 10:16 PM EDT
Astronomical Twilight 4:23 AM EDT 11:01 PM EDT
Moon 6:32 PM EDT (6/10) 4:21 AM EDT (6/10)
Length of Visible Light 15h 49m
Length of Day
14h 46m
Waxing Gibbous, 92% of the Moon is Illuminated
Jun 10
Waxing Gibbous
Jun 13
Full
Jun 19
Last Quarter
Jun 27
New
Jul 5
First Quarter

Hourly Weather History & Observations

Time (EDT) Temp. Heat Index Dew Point Humidity Pressure Visibility Wind Dir Wind Speed Gust Speed Precip Events Conditions
12:53 AM 71.1 °F - 60.1 °F 68% 29.87 in 10.0 mi East 4.6 mph - 0.00 in   Scattered Clouds
1:53 AM 71.1 °F - 60.1 °F 68% 29.85 in 10.0 mi East 5.8 mph - N/A   Clear
2:53 AM 71.1 °F - 60.1 °F 68% 29.85 in 10.0 mi East 6.9 mph - N/A   Overcast
3:53 AM 70.0 °F - 61.0 °F 73% 29.81 in 10.0 mi East 8.1 mph - 0.00 in   Overcast
4:49 AM 71.6 °F - 60.8 °F 69% 29.84 in 9.0 mi ESE 4.6 mph - N/A   Overcast
4:53 AM 71.1 °F - 61.0 °F 70% 29.82 in 9.0 mi ESE 5.8 mph - 0.00 in Rain Light Rain
5:53 AM 69.1 °F - 63.0 °F 81% 29.83 in 7.0 mi Calm Calm - 0.01 in Rain Light Rain
6:19 AM 69.1 °F - 63.0 °F 81% 29.85 in 6.0 mi SE 3.5 mph - 0.00 in Rain Light Rain
6:29 AM 69.1 °F - 63.0 °F 81% 29.84 in 6.0 mi Calm Calm - 0.00 in Rain Light Rain
6:40 AM 68.0 °F - 64.0 °F 87% 29.85 in 1.8 mi SE 3.5 mph - 0.01 in Rain Light Rain
6:49 AM 68.0 °F - 64.4 °F 88% 29.85 in 3.0 mi SE 3.5 mph - 0.01 in Rain Light Rain
6:53 AM 68.0 °F - 64.0 °F 87% 29.84 in 3.0 mi Calm Calm - 0.02 in   Overcast
7:09 AM 69.1 °F - 64.0 °F 84% 29.85 in 1.8 mi Calm Calm - 0.00 in Rain Light Rain
7:17 AM 69.1 °F - 64.9 °F 87% 29.85 in 3.0 mi SSE 3.5 mph - 0.00 in Rain Light Rain
7:31 AM 69.1 °F - 64.9 °F 87% 29.86 in 2.0 mi SSE 4.6 mph - 0.00 in Rain Light Rain
7:53 AM 70.0 °F - 64.9 °F 84% 29.85 in 5.0 mi SSE 4.6 mph - 0.00 in   Haze
8:35 AM 71.1 °F - 66.0 °F 84% 29.86 in 9.0 mi South 3.5 mph - N/A   Overcast
8:53 AM 71.1 °F - 64.9 °F 81% 29.86 in 10.0 mi South 5.8 mph - N/A   Overcast
9:48 AM 73.4 °F - 64.4 °F 73% 29.86 in 10.0 mi SSW 4.6 mph - N/A   Overcast
9:53 AM 73.4 °F - 66.2 °F 78% 29.86 in 10.0 mi Variable 3.5 mph - N/A   Overcast
10:53 AM 75.2 °F - 64.4 °F 69% 29.88 in 10.0 mi South 9.2 mph - N/A   Mostly Cloudy
11:53 AM 77.0 °F - 64.0 °F 64% 29.86 in 10.0 mi SSW 9.2 mph - N/A   Overcast
12:53 PM 78.8 °F - 64.4 °F 61% 29.88 in 10.0 mi South 8.1 mph - N/A   Overcast
1:53 PM 80.1 °F 82.1 °F 66.0 °F 62% 29.84 in 10.0 mi SE 8.1 mph - N/A   Mostly Cloudy
2:02 PM 79.0 °F - 64.9 °F 62% 29.85 in 10.0 mi SSE 4.6 mph - N/A   Mostly Cloudy
2:53 PM 80.6 °F 82.3 °F 64.4 °F 58% 29.85 in 10.0 mi South 8.1 mph - N/A   Overcast
3:53 PM 81.0 °F 82.7 °F 64.9 °F 58% 29.81 in 10.0 mi South 5.8 mph - N/A   Overcast
4:09 PM 79.0 °F - 66.9 °F 66% 29.83 in 2.5 mi South 4.6 mph - 0.05 in Rain , Thunderstorm Heavy Thunderstorms and Rain
4:17 PM 75.9 °F - 69.1 °F 79% 29.83 in 4.0 mi South 6.9 mph - 0.09 in Rain , Thunderstorm Thunderstorms and Rain
4:44 PM 73.9 °F - 68.0 °F 82% 29.84 in 5.0 mi SSE 6.9 mph - 0.13 in Rain , Thunderstorm Light Rain
5:53 PM 73.0 °F - 68.0 °F 84% 29.79 in 9.0 mi Calm Calm - 0.04 in Rain Light Rain
6:53 PM 73.0 °F - 66.9 °F 81% 29.80 in 10.0 mi SE 4.6 mph - 0.01 in   Clear
7:04 PM 72.0 °F - 66.9 °F 84% 29.81 in 10.0 mi SE 4.6 mph - N/A   Scattered Clouds
7:53 PM 72.0 °F - 66.9 °F 84% 29.79 in 10.0 mi SE 8.1 mph - N/A   Overcast
8:21 PM 72.0 °F - 66.9 °F 84% 29.80 in 10.0 mi SE 6.9 mph - N/A   Overcast
8:53 PM 72.0 °F - 66.9 °F 84% 29.78 in 10.0 mi SE 8.1 mph - N/A   Overcast
9:53 PM 72.0 °F - 66.0 °F 81% 29.76 in 10.0 mi SE 5.8 mph - N/A   Overcast
10:53 PM 71.6 °F - 66.2 °F 83% 29.79 in 10.0 mi SE 5.8 mph - N/A   Overcast
11:53 PM 71.1 °F - 66.0 °F 84% 29.79 in 10.0 mi SSE 5.8 mph - N/A   Overcast